WA2GUG Weather Reports


Display with metric or nautical units.
time (UTC)temp
F
wind
direction
speed
MPH
gust
MPH
rain 1hr
in
rain 24hr
in
rain mn
in
humidity
%
barometer
mb
20180427030053 41 315 0.0 0.0 0.00 0.00 0.00 99 1012.0
20180427025553 41 157 0.0 0.0 0.00 0.00 0.00 99 1012.0
20180427025053 41 277 0.0 0.0 0.00 0.00 0.00 99 1012.0
20180427024553 42 0 0.0 0.0 0.00 0.00 0.00 99 1012.0
20180427024053 42 213 0.0 0.0 0.00 0.00 0.00 99 1012.0
20180427023553 42 105 0.0 0.0 0.00 0.00 0.00 99 1012.0
20180427023053 43 196 0.0 2.0 0.00 0.00 0.00 99 1012.0
20180427022553 43 76 1.0 2.0 0.00 0.00 0.00 99 1012.0
20180427022053 43 106 1.0 1.0 0.00 0.00 0.00 99 1012.0
20180427021553 43 109 0.0 1.0 0.00 0.00 0.00 99 1012.0
20180427021053 43 114 1.0 2.0 0.00 0.00 0.00 99 1012.0
20180427020553 43 95 1.0 2.0 0.00 0.00 0.00 99 1012.0
20180427020053 43 102 1.0 2.0 0.00 0.00 0.00 99 1012.0
20180427015553 43 185 1.0 2.0 0.00 0.00 0.00 99 1012.0
20180427015053 43 82 0.0 1.0 0.00 0.00 0.00 99 1012.0
20180427014553 43 106 0.0 1.0 0.00 0.00 0.00 99 1012.0
20180427014053 43 210 0.0 0.0 0.00 0.00 0.00 99 1012.0
20180427013552 44 256 0.0 0.0 0.00 0.00 0.00 99 1012.0
20180427013053 44 84 0.0 0.0 0.00 0.00 0.00 99 1012.0
20180427012553 45 207 0.0 1.0 0.00 0.00 0.00 99 1012.0
20180427012052 45 22 0.0 2.0 0.00 0.00 0.00 99 1011.1
20180427011553 45 0 1.0 2.0 0.00 0.00 0.00 99 1011.1
20180427011052 45 67 1.0 2.0 0.00 0.00 0.00 99 1012.0
20180427010552 46 75 1.0 1.0 0.00 0.00 0.00 99 1012.0
20180427010053 46 118 1.0 2.0 0.00 0.00 0.00 99 1009.1
20180427005552 46 171 1.0 2.0 0.00 0.00 0.00 99 1011.1
20180427005052 46 153 0.0 2.0 0.00 0.00 0.00 99 1011.0
20180427004552 46 306 0.0 99.0 0.00 0.00 0.00 99 1011.0
20180427004053 46 292 299.0 99.0 0.00 0.00 0.00 99 1011.0
20180427003553 47 52 0.0 1.0 0.00 0.00 0.00 99 1011.0
20180427003053 48 90 0.0 2.0 0.00 0.00 0.00 99 1011.0
20180427002552 48 59 1.0 2.0 0.00 0.00 0.00 98 1011.0
20180427002052 49 78 0.0 2.0 0.00 0.00 0.00 96 1011.0
20180427001552 50 16 1.0 3.0 0.00 0.00 0.00 94 1011.0
20180427001052 50 45 1.0 3.0 0.00 0.00 0.00 95 1011.0
20180427000552 50 337 1.0 3.0 0.00 0.00 0.00 92 1011.0
20180427000052 51 292 1.0 3.0 0.00 0.00 0.00 92 1011.0
20180426235552 0 326 1.0 4.0 0.00 0.00 0.00 91 1011.0
20180426235052 0 324 3.0 4.0 0.00 0.00 0.00 89 1011.0
20180426234552 0 270 1.0 5.0 0.00 0.00 0.00 90 1010.0
20180426234052 0 317 2.0 5.0 0.00 0.00 0.00 90 1010.0
20180426233552 0 330 1.0 6.0 0.00 0.00 0.00 85 1010.0
20180426233053 0 323 2.0 6.0 0.00 0.00 0.00 87 1010.0
20180426232552 55 326 2.0 5.0 0.00 0.00 0.00 86 1010.0
20180426232052 0 0 1.0 5.0 0.00 0.00 0.00 87 1010.0
20180426231552 58 337 1.0 5.0 0.00 0.00 0.00 81 1010.0
20180426231052 60 267 2.0 6.0 0.00 0.00 0.00 81 1010.0
20180426230552 61 320 2.0 6.0 0.00 0.00 0.00 83 1010.0
20180426230052 60 339 3.0 5.0 0.00 0.00 0.00 76 1010.0
20180426225552 57 274 3.0 7.0 0.00 0.00 0.00 78 1010.0
20180426225053 0 342 3.0 8.0 0.00 0.00 0.00 82 1147.0
20180426224552 55 350 3.0 8.0 0.00 0.00 0.00 87 1010.0
20180426224052 55 302 2.0 6.0 0.00 0.00 0.00 85 1009.0
20180426223552 55 288 3.0 9.0 0.00 0.00 0.00 82 1010.0
20180426223053 55 323 4.0 9.0 0.00 0.00 0.00 86 1010.0
20180426222552 0 340 3.0 6.0 0.00 0.00 0.00 84 1010.0
20180426222053 56 298 2.0 7.0 0.00 0.00 0.00 90 1010.0
20180426221552 56 345 3.0 7.0 0.00 0.00 0.00 80 1010.0
20180426221052 57 0 4.0 7.0 0.00 0.00 0.00 83 1010.0
20180426220553 57 303 3.0 8.0 0.00 0.00 0.00 81 1010.0
20180426220053 56 303 3.0 10.0 0.00 0.00 0.00 84 1010.0
20180426215553 56 337 4.0 10.0 0.00 0.00 0.00 78 1009.0
20180426215056 56 315 4.0 9.0 0.00 0.00 0.00 86 1010.0
20180426214552 56 315 4.0 8.0 0.00 0.00 0.00 84 1010.0
20180426214052 57 6 3.0 10.0 0.00 0.00 0.00 80 1009.1
20180426213553 57 324 4.0 10.0 0.00 0.00 0.00 82 1010.0
20180426213052 58 327 4.0 8.0 0.00 0.00 0.00 83 1010.0
20180426212552 58 303 5.0 9.0 0.00 0.00 0.00 80 1010.0
20180426212052 59 350 4.0 11.0 0.00 0.00 0.00 85 1010.0
20180426211552 58 277 4.0 11.0 0.00 0.00 0.00 81 1010.0
20180426211052 58 337 3.0 6.0 0.00 0.00 0.00 81 1009.1
20180426210552 58 288 3.0 6.0 0.00 0.00 0.00 76 1010.0
20180426210053 58 258 4.0 6.0 0.00 0.00 0.00 82 1009.1
20180426205552 58 341 3.0 6.0 0.00 0.00 0.00 82 1009.0
20180426205052 59 333 3.0 7.0 0.00 0.00 0.00 80 1008.1
20180426204552 59 330 3.0 8.0 0.00 0.00 0.00 83 1008.1
20180426204052 59 326 3.0 9.0 0.00 0.00 0.00 81 1009.0
20180426203552 59 330 4.0 9.0 0.00 0.00 0.00 80 1009.0
20180426203052 60 300 3.0 8.0 0.00 0.00 0.00 72 1009.0
20180426202552 60 236 4.0 11.0 0.00 0.00 0.00 83 1008.1
20180426202052 60 334 5.0 11.0 0.00 0.00 0.00 79 1008.1
20180426201552 60 277 3.0 11.0 0.00 0.00 0.00 77 1009.0
20180426201052 60 331 5.0 11.0 0.00 0.00 0.00 75 1009.0
20180426200552 61 321 3.0 12.0 0.00 0.00 0.00 76 1008.1
20180426200053 63 309 5.0 12.0 0.00 0.00 0.00 88 1008.1
20180426195552 64 300 3.0 10.0 0.00 0.00 0.00 77 1009.0
20180426195052 64 340 5.0 10.0 0.00 0.00 0.00 77 1009.0
20180426194552 65 340 4.0 10.0 0.00 0.00 0.00 74 1009.0
20180426194052 66 333 4.0 9.0 0.00 0.00 0.00 72 1009.0
20180426193552 67 335 4.0 9.0 0.00 0.00 0.00 67 1009.0
20180426193052 67 342 4.0 10.0 0.00 0.00 0.00 73 1009.0
20180426192552 65 311 6.0 12.0 0.00 0.00 0.00 81 1008.1
20180426192053 64 297 6.0 12.0 0.00 0.00 0.00 74 1009.0
20180426191552 62 319 4.0 8.0 0.00 0.00 0.00 66 1009.0
20180426191052 60 342 3.0 8.0 0.00 0.00 0.00 73 1009.0
20180426190552 59 303 4.0 8.0 0.00 0.00 0.00 73 1009.0
20180426190052 59 307 4.0 10.0 0.00 0.00 0.00 88 1009.0
20180426185552 60 303 5.0 10.0 0.00 0.00 0.00 81 1009.0
20180426185052 61 305 3.0 10.0 0.00 0.00 0.00 77 1008.1
20180426184552 60 315 5.0 13.0 0.00 0.00 0.00 63 1009.0
20180426184052 60 337 5.0 13.0 0.00 0.00 0.00 78 1008.0
20180426183552 60 326 3.0 9.0 0.00 0.00 0.00 72 1008.1
20180426183052 60 333 4.0 8.0 0.00 0.00 0.00 74 1009.0
20180426182552 61 337 3.0 8.0 0.00 0.00 0.00 77 1008.1
20180426182052 62 328 3.0 9.0 0.00 0.00 0.00 79 1008.0
20180426181552 64 346 4.0 9.0 0.00 0.00 0.00 82 1008.0
20180426181052 64 286 4.0 9.0 0.00 0.00 0.00 85 1007.1
20180426180552 64 275 3.0 8.0 0.00 0.00 0.00 68 1007.1
20180426180052 63 301 4.0 8.0 0.00 0.00 0.00 76 1008.0
20180426175552 62 337 5.0 8.0 0.00 0.00 0.00 72 1008.0
20180426175052 61 273 3.0 8.0 0.00 0.00 0.00 86 1008.0
20180426174552 60 112 3.0 5.0 0.00 0.00 0.00 74 1007.1
20180426174053 60 342 3.0 8.0 0.00 0.00 0.00 83 1008.0
20180426173552 61 261 4.0 8.0 0.00 0.00 0.00 71 1008.0
20180426173052 62 348 3.0 5.0 0.00 0.00 0.00 81 1008.0
20180426172552 62 225 3.0 7.0 0.00 0.00 0.00 82 1008.0
20180426171552 60 298 5.0 8.0 0.00 0.00 0.00 72 1008.0
20180426171052 59 270 3.0 9.0 0.00 0.00 0.00 89 1008.0
20180426170552 59 311 5.0 9.0 0.00 0.00 0.00 75 1008.0
20180426170052 59 315 3.0 7.0 0.00 0.00 0.00 73 1008.0
20180426165552 58 33 4.0 8.0 0.00 0.00 0.00 85 1007.1
20180426165052 59 305 4.0 9.0 0.00 0.00 0.00 79 1008.0
20180426164552 61 328 5.0 99.0 0.00 0.00 0.00 75 1008.0
20180426164052 62 301 399.0 99.0 0.00 0.00 0.00 64 1007.0
20180426163552 62 309 3.0 9.0 0.00 0.00 0.00 75 1007.1
20180426163052 63 286 4.0 9.0 0.00 0.00 0.00 62 1007.1
20180426162552 63 40 4.0 9.0 0.00 0.00 0.00 70 1007.1
20180426162052 62 322 3.0 6.0 0.00 0.00 0.00 78 1007.1
20180426161552 62 285 3.0 7.0 0.00 0.00 0.00 77 1008.0
20180426161052 62 292 4.0 7.0 0.00 0.00 0.00 81 1008.0
20180426160552 62 310 4.0 7.0 0.00 0.00 0.00 77 1007.0
20180426160053 63 288 3.0 7.0 0.00 0.00 0.00 75 1008.0
20180426155052 58 274 3.0 7.0 0.00 0.00 0.00 78 1007.1
20180426154552 57 292 4.0 7.0 0.00 0.00 0.00 81 1008.0
20180426154052 57 303 3.0 7.0 0.00 0.00 0.00 73 1008.0
20180426153552 57 278 4.0 9.0 0.00 0.00 0.00 86 1008.0
20180426153053 57 292 4.0 9.0 0.00 0.00 0.00 79 1007.1
20180426152552 58 191 3.0 8.0 0.00 0.00 0.00 87 1007.1
20180426152052 59 345 4.0 8.0 0.00 0.00 0.00 85 1008.0
20180426151552 61 300 5.0 8.0 0.00 0.00 0.00 1007.1
20180426151052 63 45 3.0 9.0 0.00 0.00 0.00 84 1007.0
20180426150552 63 275 5.0 13.0 0.00 0.00 0.00 79 1007.1
20180426150052 59 300 4.0 14.0 0.00 0.00 0.00 65 1007.1
20180426145552 57 296 4.0 14.0 0.00 0.00 0.00 79 1008.0
20180426145052 56 303 5.0 9.0 0.00 0.00 0.00 83 1007.1
20180426144552 56 321 4.0 9.0 0.00 0.00 0.00 85 1008.0
20180426144052 56 330 4.0 9.0 0.00 0.00 0.00 82 1008.0
20180426143552 57 343 3.0 8.0 0.00 0.00 0.00 82 1007.1
20180426143053 59 22 2.0 5.0 0.00 0.00 0.00 86 1008.0
20180426142552 61 303 3.0 5.0 0.00 0.00 0.00 84 1007.1
20180426142052 63 333 3.0 6.0 0.00 0.00 0.00 71 1009.0
20180426141552 64 281 3.0 6.0 0.00 0.00 0.00 70 1006.1
20180426141052 62 236 3.0 7.0 0.00 0.00 0.00 86 1006.1
20180426140552 59 262 4.0 7.0 0.00 0.00 0.00 84 1007.0
20180426140052 58 306 4.0 6.0 0.00 0.00 0.00 90 1007.1
20180426135552 56 292 2.0 7.0 0.00 0.00 0.00 89 1007.1
20180426135052 56 307 3.0 7.0 0.00 0.00 0.00 87 1008.0
20180426134552 57 337 3.0 8.0 0.00 0.00 0.00 83 1007.1
20180426134052 59 324 4.0 8.0 0.00 0.00 0.00 85 1007.1
20180426133552 0 303 4.0 8.0 0.00 0.00 0.00 85 1008.0
20180426133052 0 315 3.0 7.0 0.00 0.00 0.00 86 1007.1
20180426132552 0 285 4.0 10.0 0.00 0.00 0.00 87 1007.1
20180426132052 0 337 5.0 10.0 0.00 0.00 0.00 65 1007.0
20180426131552 58 292 4.0 9.0 0.00 0.00 0.00 83 1007.0
20180426131052 0 322 2.0 7.0 0.00 0.00 0.00 82 1006.1
20180426130552 58 45 3.0 7.0 0.00 0.00 0.00 78 1007.0
20180426130052 0 330 3.0 7.0 0.00 0.00 0.00 90 1007.0
20180426125552 0 303 3.0 12.0 0.00 0.00 0.00 96 1007.0
20180426125052 0 328 4.0 12.0 0.00 0.00 0.00 91 1007.0
20180426124552 0 281 4.0 10.0 0.00 0.00 0.00 87 1007.0
20180426124052 0 270 5.0 9.0 0.00 0.00 0.00 86 1007.0
20180426123552 0 323 3.0 7.0 0.00 0.00 0.00 88 1006.1
20180426123052 54 333 3.0 7.0 0.00 0.00 0.00 96 1007.0
20180426122552 0 300 3.0 12.0 0.00 0.00 0.00 93 1006.0
20180426122052 0 333 4.0 12.0 0.00 0.00 0.00 95 1006.1
20180426121552 0 315 3.0 10.0 0.00 0.00 0.00 99 1006.0
20180426121052 0 5.0 10.0 0.00 0.00 0.00 99 1010.0
20180426120552 0 330 3.0 9.0 0.00 0.00 0.00 99 1007.0
20180426120052 0 306 4.0 11.0 0.00 0.00 0.00 99 1007.0
20180426115552 0 342 4.0 11.0 0.00 0.00 0.00 99 1158.0
20180426115052 0 333 4.0 11.0 0.00 0.00 0.00 99 1007.0
20180426114552 52 337 5.0 11.0 0.00 0.00 0.00 99 1006.0
20180426114052 0 323 3.0 6.0 0.00 0.00 0.00 99 1007.0
20180426113552 0 305 2.0 9.0 0.00 0.00 0.00 99 1006.1
20180426113052 0 334 3.0 9.0 0.00 0.00 0.00 99 1007.0
20180426112552 52 303 2.0 7.0 0.00 0.00 0.00 99 1007.0
20180426112052 52 348 3.0 7.0 0.00 0.00 0.00 99 1006.1
20180426111552 52 25 2.0 5.0 0.00 0.00 0.00 99 1005.1
20180426111052 0 337 2.0 8.0 0.00 0.00 0.00 99 1006.1
20180426110552 0 307 2.0 8.0 0.00 0.00 0.00 99 1007.0
20180426110052 0 326 2.0 4.0 0.00 0.00 0.00 99 1007.0
20180426105552 0 292 1.0 5.0 0.00 0.00 0.00 99 1006.1
20180426105052 52 277 2.0 6.0 0.00 0.00 0.00 99 1006.1
20180426104552 0 355 2.0 6.0 0.00 0.00 0.00 99 1006.0
20180426104052 0 28 1.0 4.0 0.00 0.00 0.00 99 1006.0
20180426103552 0 112 1.0 4.0 0.00 0.00 0.00 93 1005.1
20180426103052 0 0 2.0 5.0 0.00 0.00 0.00 99 1006.0
20180426102552 51 22 2.0 5.0 0.00 0.00 0.00 99 1005.1
20180426102053 0 13 1.0 3.0 0.00 0.00 0.00 99 1006.0
20180426101552 0 337 1.0 3.0 0.00 0.00 0.00 99 1005.1
20180426101052 0 18 1.0 4.0 0.00 0.00 0.00 99 1005.1
20180426100552 0 348 1.0 7.0 0.00 0.00 0.00 93 1006.0
20180426100051 0 356 2.0 7.0 0.00 0.00 0.00 99 1006.0
20180426095552 0 8 2.0 4.0 0.00 0.00 0.00 99 1005.1
20180426095052 0 341 2.0 5.0 0.00 0.00 0.00 99 1005.1
20180426094551 51 319 2.0 6.0 0.00 0.00 0.00 99 1006.0
20180426094052 0 0 2.0 8.0 0.00 0.00 0.00 99 1005.1
20180426093552 0 4 2.0 8.0 0.00 0.00 0.00 99 1005.0
20180426093052 0 334 2.0 5.0 0.00 0.00 0.00 99 1006.0
20180426092551 0 322 1.0 5.0 0.00 0.00 0.00 99 1005.1
20180426092051 0 307 1.0 4.0 0.00 0.00 0.00 99 1005.0
20180426091551 0 343 1.0 4.0 0.00 0.00 0.00 99 1006.0
20180426091051 51 343 1.0 4.0 0.00 0.00 0.00 99 1005.1
20180426090551 0 3 0.0 2.0 0.00 0.00 0.00 99 1006.0
20180426090052 0 286 1.0 4.0 0.00 0.00 0.00 99 1005.1
20180426085551 0 0 2.0 5.0 0.00 0.00 0.00 99 1005.0
20180426085051 0 25 2.0 5.0 0.00 0.00 0.00 99 1006.0
20180426084551 0 301 1.0 4.0 0.00 0.00 0.00 99 1006.0
20180426084051 0 22 2.0 4.0 0.00 0.00 0.00 99 1006.0
20180426083551 0 31 1.0 3.0 0.00 0.00 0.00 99 1005.1
20180426083052 0 0 1.0 4.0 0.00 0.00 0.00 99 1157.0
20180426082551 0 354 2.0 4.0 0.00 0.00 0.00 99 1006.0
20180426082051 0 22 1.0 2.0 0.00 0.00 0.00 99 1006.0
20180426081551 0 0 1.0 3.0 0.00 0.00 0.00 99 1006.0
20180426081051 0 0 2.0 4.0 0.00 0.00 0.00 99 1005.1
20180426080551 0 16 2.0 4.0 0.00 0.00 0.00 99 1006.0
20180426080051 0 22 2.0 4.0 0.00 0.00 0.00 99 1005.0
20180426075551 53 337 2.0 5.0 0.00 0.00 0.00 99 1005.0
20180426075051 0 303 2.0 5.0 0.00 0.00 0.00 99 1006.0
20180426074551 0 337 1.0 2.0 0.00 0.00 0.00 99 1006.0
20180426074051 0 324 0.0 2.0 0.00 0.00 0.00 99 1005.0
20180426073551 0 326 0.0 1.0 0.00 0.00 0.00 99 1006.0
20180426073052 0 337 0.0 1.0 0.00 0.00 0.00 99 1006.0
20180426072551 0 322 0.0 0.0 0.00 0.00 0.00 99 1006.0
20180426072051 0 307 0.0 99.0 0.00 0.00 0.00 95 1004.0
20180426071552 0 309 70.0 99.0 0.00 0.00 0.00 99 1005.1
20180426071051 0 328 0.0 1.0 0.00 0.00 0.00 99 1006.0
20180426070551 0 352 0.0 1.0 0.00 0.00 0.00 99 1005.0
20180426070051 0 37 0.0 2.0 0.00 0.00 0.00 99 1005.0
20180426065551 0 28 1.0 2.0 0.00 0.00 0.00 99 1006.0
20180426065052 0 302 0.0 0.0 0.00 0.00 0.00 99 1005.0
20180426064551 0 301 0.0 0.0 0.00 0.00 0.00 99 1006.0
20180426064051 0 324 0.0 0.0 0.00 0.00 0.00 99 1006.0
20180426063551 0 324 0.0 0.0 0.00 0.00 0.00 99 1006.0
20180426063052 0 292 0.0 0.0 0.00 0.00 0.00 99 1006.0
20180426062551 0 26 0.0 0.0 0.00 0.00 0.00 99 1006.0
20180426062051 0 333 0.0 0.0 0.00 0.00 0.00 99 1005.1
20180426061551 0 292 0.0 0.0 0.00 0.00 0.00 99 1006.0
20180426061051 0 285 0.0 1.0 0.00 0.00 0.00 99 1006.0
20180426060551 0 247 0.0 99.0 0.00 0.00 0.00 99 1006.0
20180426060051 54 22 74.0 99.0 0.00 0.00 0.00 99 1006.0
20180426055551 0 26 0.0 2.0 0.00 0.00 0.00 99 1006.0
20180426055051 54 27 1.0 2.0 0.00 0.00 0.00 99 1005.0
20180426054551 0 346 0.0 1.0 0.00 0.00 0.00 99 1006.0
20180426054051 0 337 0.0 1.0 0.00 0.00 0.00 99 1006.0
20180426053551 0 318 0.0 1.0 0.00 0.00 0.00 99 1006.0
20180426053051 0 355 0.0 1.0 0.00 0.00 0.00 99 1005.0
20180426052551 0 22 0.0 1.0 0.00 0.00 0.00 99 1006.0
20180426052051 0 319 0.0 0.0 0.00 0.00 0.00 99 1006.0
20180426051551 0 326 0.0 0.0 0.00 0.00 0.00 99 1005.0
20180426051051 0 292 0.0 0.0 0.00 0.00 0.00 99 1006.0
20180426050551 0 298 0.0 0.0 0.00 0.00 0.00 99 1005.0
20180426050051 0 292 0.0 0.0 0.00 0.00 0.00 99 1006.0
20180426045551 0 348 0.0 1.0 0.00 0.00 0.00 99 1006.0
20180426045051 0 31 0.0 1.0 0.00 0.00 0.00 99 1006.0
20180426044551 0 341 0.0 99.0 0.00 0.00 0.00 99 1006.0
20180426044051 0 292 69.0 99.0 0.00 0.00 0.00 99 1005.0
20180426043551 0 337 0.0 0.0 0.00 0.00 0.00 99 1006.0
20180426043051 0 322 0.0 0.0 0.00 0.00 0.00 99 1006.0
20180426042551 0 348 0.0 0.0 0.00 0.00 0.00 99 1006.0
20180426042051 55 337 0.0 0.0 0.00 0.00 0.00 99 1006.0
20180426041551 0 7 0.0 0.0 0.00 0.00 0.00 99 1006.0
20180426041051 0 15 0.0 0.0 0.00 0.00 0.00 99 1007.0
20180426040551 0 352 0.0 0.0 0.00 0.00 0.00 99 1007.0
20180426040051 0 337 0.0 0.0 0.00 0.00 0.00 99 1006.0
20180426035551 0 4 0.0 0.0 0.00 0.00 0.00 99 1007.0
20180426035051 0 3 0.0 0.0 0.00 0.00 0.00 99 1007.0
20180426034551 0 26 0.0 0.0 0.00 0.00 0.00 99 1007.0
20180426034051 0 337 0.0 0.0 0.00 0.00 0.00 99 1006.0
20180426033551 0 292 0.0 2.0 0.00 0.00 0.00 99 1007.0
20180426033051 0 355 0.0 2.0 0.00 0.00 0.00 99 1007.0
20180426032551 0 337 0.0 0.0 0.00 0.00 0.00 99 1007.0
20180426032051 0 354 0.0 0.0 0.00 0.00 0.00 99 1007.0
20180426031552 0 292 0.0 0.0 0.00 0.00 0.00 99 1007.0
20180426031051 0 310 0.0 0.0 0.00 0.00 0.00 99 1007.0
20180426030551 0 337 0.0 0.0 0.00 0.00 0.00 99 1007.0